Tracking 21045 objects as of 3-Aug-2020
HD Live streaming from Space Station
objects crossing your sky now

USA 24

Track USA 24 now!
10-day predictions
USA 24 is classified as:


NORAD ID: 18010
Int'l Code: 1987-043F
Perigee: 394.7 km
Apogee: 1,793.0 km
Inclination: 63.3 °
Period: 107.0 minutes
Semi major axis: 7464 km
RCS: Unknown
Launch date: May 15, 1987
Source: United States (US)
Launch site: AIR FORCE WESTERN TEST RANGE (AFWTR)
aabbcc
Your satellite tracking list
Your tracking list is empty




NASA's NSSDC Master Catalog

Two Line Element Set (TLE):
1 18010U 87043F   20215.79784649 +.00000451 +00000-0 +54386-4 0  9996
2 18010 063.3055 009.5718 0936624 064.4196 305.0605 13.46082667053622
Source of the keplerian elements: McCants